Weather History for Gainesville, GA

Change the Weather History Date:

Thursday, January 30, 2014

  Actual Average Record
Temperature  
Mean Temperature 27 °F 43 °F  
Max Temperature 38 °F 52 °F 74 °F (1950)
Min Temperature 15 °F 34 °F -8 °F (1966)
Degree Days  
Heating Degree Days 38 22  
Month to date heating degree days 901 704  
Since 1 July heating degree days 2096 1900  
Moisture  
Dew Point 11 °F    
Average Humidity 56    
Maximum Humidity 80    
Minimum Humidity 32    
Precipitation  
Precipitation 0.00 in 0.19 in 2.26 in (2013)
Month to date precipitation 2.96 4.82  
Year to date precipitation 2.96 4.82  
Snow  
Snow 0.00 in - - ()
Month to date snowfall T  
Since 1 July snowfall T  
Snow Depth 0.00 in    
Sea Level Pressure  
Sea Level Pressure 30.30 in    
Wind  
Wind Speed 3 mph (East)    
Max Wind Speed 9 mph    
Max Gust Speed 20 mph    
Visibility 9 miles    
Events      
T = Trace of Precipitation, MM = Missing Value Source: NWS Daily Summary

Daily Weather History Graph

Daily Weather History Graph

Search for Another Location

Airport:

Trip Planner

Search our weather history database for the weather conditions in past years. The results will help you decide how hot, cold, wet, or windy it might be!

Date:

Astronomy

Jan. 30, 2014 Rise Set
Actual Time 7:34 AM EST 6:03 PM EST
Civil Twilight 7:07 AM EST 6:29 PM EST
Nautical Twilight 6:37 AM EST 7:00 PM EST
Astronomical Twilight 6:08 AM EST 7:29 PM EST
Moon 7:01 AM EST (1/30) 6:11 PM EST (1/30)
Length of Visible Light 11h 22m
Length of Day
10h 29m
Waning Crescent, 0% of the Moon is Illuminated
Jan 30
Waning Crescent
Jan 30
New
Feb 6
First Quarter
Feb 14
Full
Feb 22
Last Quarter

Hourly Weather History & Observations

Time (EST) Temp. Windchill Dew Point Humidity Pressure Visibility Wind Dir Wind Speed Gust Speed Precip Events Conditions
12:53 AM 19.0 °F - 6.1 °F 57% 30.34 in 10.0 mi Calm Calm - N/A   Clear
1:53 AM 18.0 °F - 8.1 °F 65% 30.34 in 10.0 mi Calm Calm - N/A   Clear
2:53 AM 18.0 °F 11.1 °F 8.1 °F 65% 30.33 in 10.0 mi NNE 4.6 mph - N/A   Clear
3:53 AM 17.1 °F 11.7 °F 10.9 °F 77% 30.32 in 9.0 mi NE 3.5 mph - N/A   Clear
4:53 AM 17.1 °F 10.0 °F 12.0 °F 81% 30.33 in 7.0 mi NNE 4.6 mph - N/A   Clear
5:53 AM 17.1 °F - 10.9 °F 77% 30.33 in 7.0 mi Calm Calm - N/A   Clear
6:53 AM 17.1 °F 11.7 °F 10.9 °F 77% 30.35 in 8.0 mi NNE 3.5 mph - N/A   Clear
7:53 AM 17.1 °F - 10.9 °F 77% 30.35 in 7.0 mi Calm Calm - N/A   Clear
8:53 AM 21.0 °F - 12.9 °F 71% 30.36 in 7.0 mi Calm Calm - N/A   Clear
9:53 AM 26.1 °F 17.6 °F 15.1 °F 63% 30.36 in 8.0 mi East 8.1 mph - N/A   Clear
10:53 AM 28.0 °F 21.7 °F 12.0 °F 51% 30.38 in 10.0 mi ESE 5.8 mph - N/A   Clear
11:53 AM 30.0 °F 26.5 °F 9.0 °F 41% 30.36 in 10.0 mi SSE 3.5 mph - N/A   Clear
12:53 PM 33.1 °F - 10.0 °F 38% 30.32 in 10.0 mi Calm Calm - N/A   Clear
1:53 PM 34.0 °F 28.8 °F 10.9 °F 38% 30.28 in 10.0 mi ESE 5.8 mph - N/A   Clear
2:53 PM 36.0 °F 30.3 °F 10.9 °F 36% 30.24 in 10.0 mi ESE 6.9 mph - N/A   Clear
3:53 PM 37.0 °F 31.0 °F 10.9 °F 34% 30.23 in 10.0 mi SE 8.1 mph - N/A   Clear
4:53 PM 37.0 °F 34.5 °F 10.9 °F 34% 30.22 in 10.0 mi East 3.5 mph - N/A   Clear
5:53 PM 35.1 °F 30.1 °F 10.9 °F 37% 30.22 in 10.0 mi SE 5.8 mph - N/A   Clear
6:53 PM 32.0 °F 28.7 °F 10.9 °F 42% 30.23 in 10.0 mi East 3.5 mph - N/A   Clear
7:53 PM 30.9 °F - 10.9 °F 43% 30.24 in 10.0 mi Calm Calm - N/A   Clear
8:53 PM 28.9 °F - 12.9 °F 51% 30.25 in 10.0 mi Calm Calm - N/A   Clear
9:53 PM 30.0 °F - 10.9 °F 45% 30.24 in 10.0 mi Calm Calm - N/A   Clear
10:53 PM 28.0 °F - 12.9 °F 53% 30.24 in 10.0 mi Calm Calm - N/A   Clear
11:53 PM 26.1 °F - 14.0 °F 60% 30.24 in 10.0 mi Calm Calm - N/A   Clear